Location: Unspecified
(47.4992°N, 121.7766°W)
Time: 05:12:58
(UTC-08:00)

CZ-3 Stage 3 - Visible Passes

Search period start: 08 December 2025 00:00
Search period end: 18 December 2025 00:00
Orbit: 420 x 34642 km, 31.1° (Epoch: 06 December)

Date Brightness Start Highest point End Pass type
(mag) Time Alt. Az. Time Alt. Az. Time Alt. Az.
08 Dec 8.3 01:25:29 10° WSW 03:56:14 45° WSW 10:24:10 10° SW visible
08 Dec 8.0 21:34:26 10° S 03:04:22 70° S 06:49:50 10° SE visible
09 Dec 8.3 18:34:19 10° ESE 00:44:02 44° E 02:55:04 10° E visible
10 Dec 10.1 06:32:09 10° WNW 07:07:50 11° WNW 07:59:04 10° WNW visible
11 Dec 8.3 00:54:23 10° WSW 03:29:12 49° WSW 09:57:02 10° SSW visible
11 Dec 8.0 21:05:50 10° S 02:58:39 70° S 06:20:48 10° SE visible
12 Dec 8.4 18:19:31 10° E 00:14:08 40° E 02:23:15 10° E visible
13 Dec 9.4 06:14:44 14° WNW 06:37:12 14° WNW 08:48:47 10° WNW visible
14 Dec 8.3 00:23:33 10° SW 03:02:43 53° WSW 09:29:27 10° SSW visible
14 Dec 8.0 20:37:15 10° S 02:46:53 70° SSE 05:51:28 10° SE visible
15 Dec 8.6 19:42:26 20° E 23:44:05 36° E 01:50:37 10° E visible
16 Dec 9.3 05:57:09 18° WNW 06:06:41 18° WNW 09:16:12 10° WNW visible
16 Dec 8.3 23:52:55 10° SW 02:37:00 56° WSW 09:01:29 10° SSW visible
